Location: Unspecified
(0.0000°N, 0.0000°E)
Time: 01:23:14
(UTC+00:00)

deb Kosmos-1275 - Pass Details

Date: 11 March 2026
Orbit: 928 x 975 km, 82.8° (Epoch: 14 April)

Event Time Altitude Azimuth Distance (km) Brightness Sun altitude
Rises 05:25:13 0° 37° (NE) 3,657 ? -11.2°
Reaches altitude 10° 05:30:03 10° 71° (ENE) 2,715 ? -10.0°
Maximum altitude 05:31:42 11° 87° (E) 2,636 ? -9.6°
Drops below altitude 10° 05:33:22 10° 103° (ESE) 2,716 ? -9.2°
Sets 05:38:10 0° 136° (SE) 3,661 ? -8.0°
